Starlink 36594

operational
NORAD ID: 67574 Int'l Des: 2026-016 Owner: SPXS Country: US Constellation: starlink
LEOCIRCULARRETROGRADE

About Starlink 36594

Description loading...

Live Position

Loading 3D Globe...

Upcoming Passes

Altitude History

Altitude vs Time

uPlot chart will show altitude changes over time

Two-Line Element Set

1 67574U 26016P 26047.59761291 .00348465 00000-0 17377-2 0 9990
2 67574 97.2838 107.0512 0001643 50.8476 309.2938 15.80949449 3480
Epoch: Feb 16, 2026 • Age: 9 hours

Current Status

Altitude 336.9 km
Velocity 7.71 km/s
Sub-Earth Point -26.75°S, 25.99°W
Launch Date Jan 25, 2026
Age 22 days
Type internet

Technical Details

Classification Payload
Mass 575.00 kg
Dry Mass 530.00 kg
Total Mass 575.00 kg
Length 0.30 m
Diameter 4.10 m
Span 29.00 m
Shape Box + pan
Manufacturer SPXS
Bus Type Starlink V2MO
Phase Status In Orbit
Owner/State SPXS/US

Large Constellations

Loading constellations...